{"data":{"norad_id":56111,"intl_designator":"2023-046U","name":"STARLINK-6084","alt_names":[],"object_type":"PAYLOAD","status":"ACTIVE","operator":null,"country":"US","launch_date":"2023-03-29","launch_site_code":"AFETR","launch_vehicle":null,"mission":null,"orbit_class":"UNKNOWN","rcs_meters":null,"size_class":null,"mass_kg":null,"dimensions":null,"purposes":["comms"],"wikipedia_slug":null,"has_3d_model":false,"image_url":null,"decayed_at":null,"tle_current":{"epoch":"2026-09-19T22:29:38.228928Z","epoch_age_seconds":157430,"freshness":"FRESH","line1":"1 56111U 23046U   26262.93724802 -.00000113  00000+0  54303-5 0  9997","line2":"2 56111  43.0045 145.0071 0001458 263.7178  96.3508 15.27574782191732","mean_motion":15.27574782,"eccentricity":0.0001458,"inclination_deg":43.0045,"raan_deg":145.0071,"arg_perigee_deg":263.7178,"mean_anomaly_deg":96.3508,"bstar":5.4303e-6,"rev_number":19173,"period_min":94.267070716804,"perigee_km":482.06435744242,"apogee_km":484.06508386417,"semimajor_km":6861.2017206533,"source":"CELESTRAK","updated_at":"2026-09-21T09:00:33.384002Z"}}}